CSN343 ZULS-ZUUU

Flight info

Callsign CSN343
Flight time 1h 44m
Altitude 37100
Route LXA W500 DM W9 LADUP LADUP2E
Aircraft A319/M-SDE3FGHIRWY/LB1

Departure

Time 2026-04-19 23:42
Airport Lhasa Gonggar International Airport (ZULS)

Arrival

Time 2026-04-20 01:27
Airport Chengdu Shuangliu International Airport (ZUUU)
Time Latitude Longitude Altitude Speed Heading
2026-04-19 23:00 29.29420 90.90071 11554 ft 0 kts 181°
2026-04-19 23:22 29.29434 90.90071 11563 ft 3 kts 181°
2026-04-19 23:22 29.29451 90.90071 11559 ft 2 kts 165°
2026-04-19 23:23 29.29468 90.90062 11565 ft 3 kts 154°
2026-04-19 23:23 29.29485 90.90053 11553 ft 3 kts 125°
2026-04-19 23:23 29.29488 90.90050 11570 ft 0 kts 104°
2026-04-19 23:29 29.29488 90.90051 11570 ft 1 kts 110°
2026-04-19 23:29 29.29486 90.90052 11570 ft 0 kts 118°
2026-04-19 23:29 29.29486 90.90053 11570 ft 0 kts 123°
2026-04-19 23:30 29.29485 90.90054 11570 ft 0 kts 126°
2026-04-19 23:30 29.29481 90.90056 11570 ft 1 kts 150°
2026-04-19 23:30 29.29480 90.90056 11570 ft 0 kts 153°
2026-04-19 23:30 29.29473 90.90055 11563 ft 0 kts 186°
2026-04-19 23:31 29.29470 90.90057 11564 ft 1 kts 157°
2026-04-19 23:31 29.29484 90.90079 11573 ft 8 kts 22°
2026-04-19 23:31 29.29543 90.90042 11564 ft 12 kts 312°
2026-04-19 23:31 29.29620 90.90048 11570 ft 13 kts 51°
2026-04-19 23:32 29.29626 90.90144 11569 ft 12 kts 88°
2026-04-19 23:32 29.29630 90.90237 11576 ft 11 kts 92°
2026-04-19 23:32 29.29631 90.90326 11576 ft 11 kts 89°
2026-04-19 23:32 29.29631 90.90414 11575 ft 11 kts 90°
2026-04-19 23:33 29.29630 90.90506 11576 ft 12 kts 90°
2026-04-19 23:33 29.29630 90.90603 11575 ft 13 kts 90°
2026-04-19 23:33 29.29629 90.90714 11575 ft 15 kts 89°
2026-04-19 23:33 29.29631 90.90847 11575 ft 18 kts 90°
2026-04-19 23:34 29.29634 90.91002 11575 ft 21 kts 86°
2026-04-19 23:34 29.29640 90.91167 11575 ft 20 kts 88°
2026-04-19 23:34 29.29645 90.91322 11575 ft 17 kts 88°
2026-04-19 23:34 29.29648 90.91451 11563 ft 16 kts 88°
2026-04-19 23:35 29.29651 90.91574 11574 ft 15 kts 88°
2026-04-19 23:35 29.29654 90.91693 11568 ft 15 kts 88°
2026-04-19 23:35 29.29656 90.91808 11568 ft 14 kts 89°
2026-04-19 23:35 29.29657 90.91921 11568 ft 14 kts 89°
2026-04-19 23:36 29.29657 90.92034 11567 ft 14 kts 90°
2026-04-19 23:36 29.29658 90.92150 11567 ft 16 kts 90°
2026-04-19 23:36 29.29659 90.92286 11566 ft 18 kts 89°
2026-04-19 23:36 29.29660 90.92436 11566 ft 20 kts 89°
2026-04-19 23:37 29.29663 90.92606 11568 ft 22 kts 88°
2026-04-19 23:37 29.29667 90.92788 11568 ft 23 kts 88°
2026-04-19 23:37 29.29671 90.92961 11568 ft 19 kts 88°
2026-04-19 23:37 29.29674 90.93110 11568 ft 15 kts 89°
2026-04-19 23:38 29.29675 90.93191 11568 ft 4 kts 90°
2026-04-19 23:38 29.29675 90.93195 11568 ft 0 kts 90°
2026-04-19 23:38 29.29675 90.93212 11568 ft 4 kts 90°
2026-04-19 23:38 29.29678 90.93253 11564 ft 5 kts 79°
2026-04-19 23:39 29.29694 90.93281 11559 ft 3 kts 25°
2026-04-19 23:39 29.29700 90.93281 11563 ft 0 kts
2026-04-19 23:39 29.29705 90.93281 11566 ft 4 kts
2026-04-19 23:40 29.29774 90.93279 11565 ft 15 kts 358°
2026-04-19 23:40 29.29839 90.93209 11568 ft 15 kts 269°
2026-04-19 23:40 29.29839 90.93199 11568 ft 0 kts 268°
2026-04-19 23:41 29.29838 90.93192 11568 ft 11 kts 268°
2026-04-19 23:41 29.29831 90.92838 11570 ft 76 kts 269°
2026-04-19 23:42 29.29818 90.92011 11574 ft 130 kts 269°
2026-04-19 23:42 29.29803 90.90798 11578 ft 174 kts 269°
2026-04-19 23:42 29.29772 90.89298 11794 ft 192 kts 269°
2026-04-19 23:42 29.29751 90.87785 12485 ft 188 kts 268°
2026-04-19 23:43 29.29720 90.86302 13168 ft 184 kts 268°
2026-04-19 23:43 29.29685 90.84816 13524 ft 189 kts 268°
2026-04-19 23:43 29.29691 90.83293 13865 ft 193 kts 270°
2026-04-19 23:43 29.29687 90.81744 14259 ft 196 kts 268°
2026-04-19 23:44 29.29650 90.80165 14587 ft 205 kts 268°
2026-04-19 23:44 29.29603 90.78447 14714 ft 227 kts 268°
2026-04-19 23:44 29.29551 90.76554 14837 ft 249 kts 268°
2026-04-19 23:44 29.29840 90.74533 15168 ft 268 kts 291°
2026-04-19 23:45 29.30891 90.72685 15415 ft 288 kts 317°
2026-04-19 23:45 29.32648 90.71498 15713 ft 307 kts 344°
2026-04-19 23:45 29.34838 90.71410 15874 ft 330 kts 13°
2026-04-19 23:45 29.36947 90.72613 15972 ft 353 kts 40°
2026-04-19 23:46 29.38412 90.74891 16136 ft 371 kts 68°
2026-04-19 23:46 29.38867 90.77851 16459 ft 379 kts 95°
2026-04-19 23:46 29.38211 90.80774 17129 ft 381 kts 115°
2026-04-19 23:46 29.36963 90.83422 17780 ft 385 kts 123°
2026-04-19 23:47 29.35504 90.86010 18416 ft 389 kts 124°
2026-04-19 23:47 29.34015 90.88621 18970 ft 394 kts 124°
2026-04-19 23:47 29.32616 90.91348 19519 ft 399 kts 118°
2026-04-19 23:47 29.31414 90.94238 20080 ft 405 kts 115°
2026-04-19 23:48 29.30338 90.97239 20622 ft 410 kts 112°
2026-04-19 23:48 29.29528 91.00390 21146 ft 417 kts 98°
2026-04-19 23:48 29.29312 91.03708 21677 ft 421 kts 93°
2026-04-19 23:48 29.29175 91.07089 22207 ft 426 kts 92°
2026-04-19 23:49 29.29052 91.10498 22721 ft 431 kts 93°
2026-04-19 23:49 29.28919 91.13944 23219 ft 435 kts 93°
2026-04-19 23:49 29.28769 91.17424 23684 ft 440 kts 93°
2026-04-19 23:49 29.28597 91.20933 24107 ft 443 kts 94°
2026-04-19 23:50 29.28407 91.24463 24547 ft 446 kts 94°
2026-04-19 23:50 29.28207 91.28010 24983 ft 448 kts 94°
2026-04-19 23:50 29.28003 91.31583 25417 ft 451 kts 94°
2026-04-19 23:50 29.27802 91.35175 25845 ft 453 kts 94°
2026-04-19 23:51 29.27604 91.38788 26272 ft 456 kts 94°
2026-04-19 23:51 29.27405 91.42416 26686 ft 458 kts 94°
2026-04-19 23:51 29.27206 91.46069 27100 ft 461 kts 94°
2026-04-19 23:51 29.27006 91.49740 27519 ft 463 kts 94°
2026-04-19 23:52 29.26804 91.53431 27931 ft 466 kts 95°
2026-04-19 23:52 29.26598 91.57136 28357 ft 468 kts 95°
2026-04-19 23:52 29.26388 91.60860 28762 ft 470 kts 95°
2026-04-19 23:52 29.26174 91.64605 29152 ft 472 kts 95°
2026-04-19 23:53 29.25960 91.68368 29547 ft 475 kts 95°
2026-04-19 23:53 29.25747 91.72149 29917 ft 477 kts 95°
2026-04-19 23:53 29.25531 91.75946 30244 ft 480 kts 95°
2026-04-19 23:53 29.25342 91.79774 30524 ft 483 kts 94°
2026-04-19 23:54 29.25220 91.83629 30803 ft 486 kts 92°
2026-04-19 23:54 29.25143 91.87519 31066 ft 490 kts 92°
2026-04-19 23:54 29.25085 91.91431 31328 ft 493 kts 92°
2026-04-19 23:54 29.25023 91.95362 31616 ft 495 kts 92°
2026-04-19 23:55 29.24949 91.99298 31934 ft 497 kts 92°
2026-04-19 23:55 29.24859 92.03256 32301 ft 497 kts 92°
2026-04-19 23:55 29.24758 92.07169 32660 ft 498 kts 92°
2026-04-19 23:55 29.24649 92.11133 33016 ft 498 kts 93°
2026-04-19 23:56 29.24537 92.15098 33379 ft 499 kts 93°
2026-04-19 23:56 29.24424 92.19074 33728 ft 500 kts 93°
2026-04-19 23:56 29.24310 92.23105 34075 ft 500 kts 92°
2026-04-19 23:56 29.24202 92.27031 34363 ft 502 kts 92°
2026-04-19 23:57 29.24094 92.31040 34620 ft 504 kts 92°
2026-04-19 23:57 29.23986 92.35058 34833 ft 507 kts 93°
2026-04-19 23:57 29.23879 92.39073 35037 ft 509 kts 92°
2026-04-19 23:57 29.23770 92.43152 35240 ft 512 kts 92°
2026-04-19 23:58 29.23656 92.47246 35570 ft 513 kts 92°
2026-04-19 23:58 29.23550 92.51336 35777 ft 516 kts 91°
2026-04-19 23:58 29.23780 92.55444 36002 ft 518 kts 81°
2026-04-19 23:58 29.24531 92.59466 36160 ft 515 kts 71°
2026-04-19 23:59 29.25780 92.63304 36309 ft 515 kts 61°
2026-04-19 23:59 29.27470 92.66904 36578 ft 513 kts 55°
2026-04-19 23:59 29.29236 92.70428 36839 ft 513 kts 56°
2026-04-19 23:59 29.31010 92.73998 36958 ft 512 kts 57°
2026-04-20 00:00 29.32767 92.77556 37120 ft 514 kts 56°
2026-04-20 00:00 29.34530 92.81137 37208 ft 518 kts 56°
2026-04-20 00:00 29.38084 92.88356 37218 ft 520 kts 57°
2026-04-20 00:01 29.41629 92.95553 37207 ft 519 kts 56°
2026-04-20 00:02 29.46989 93.06421 37213 ft 522 kts 57°
2026-04-20 00:02 29.50553 93.13681 37242 ft 522 kts 57°
2026-04-20 00:03 29.54072 93.20881 37204 ft 515 kts 57°
2026-04-20 00:03 29.57576 93.28062 37199 ft 515 kts 57°
2026-04-20 00:04 29.61059 93.35213 37196 ft 514 kts 57°
2026-04-20 00:04 29.64540 93.42360 37183 ft 501 kts 57°
2026-04-20 00:05 29.67345 93.48125 37200 ft 502 kts 57°
2026-04-20 00:05 29.70804 93.55205 37193 ft 511 kts 57°
2026-04-20 00:06 29.74277 93.62361 37188 ft 512 kts 57°
2026-04-20 00:06 29.77742 93.69539 37223 ft 514 kts 57°
2026-04-20 00:07 29.81196 93.76708 37202 ft 508 kts 57°
2026-04-20 00:07 29.84620 93.83820 37167 ft 508 kts 58°
2026-04-20 00:08 29.88051 93.90976 37174 ft 511 kts 59°
2026-04-20 00:08 29.90491 93.98685 37176 ft 516 kts 76°
2026-04-20 00:09 29.92083 94.06762 37178 ft 517 kts 76°
2026-04-20 00:09 29.93678 94.14867 37207 ft 519 kts 76°
2026-04-20 00:10 29.95269 94.22971 37179 ft 518 kts 76°
2026-04-20 00:10 29.96865 94.31096 37207 ft 520 kts 76°
2026-04-20 00:11 29.98471 94.39241 37217 ft 520 kts 76°
2026-04-20 00:11 30.00051 94.47329 37216 ft 520 kts 76°
2026-04-20 00:12 30.01634 94.55475 37213 ft 520 kts 76°
2026-04-20 00:12 30.03213 94.63625 37192 ft 520 kts 76°
2026-04-20 00:13 30.04779 94.71762 37172 ft 517 kts 76°
2026-04-20 00:13 30.06333 94.79844 37168 ft 515 kts 76°
2026-04-20 00:14 30.07881 94.87920 37160 ft 516 kts 76°
2026-04-20 00:14 30.09411 94.95984 37164 ft 513 kts 77°
2026-04-20 00:15 30.10964 95.04034 37168 ft 515 kts 76°
2026-04-20 00:15 30.12588 95.12112 37172 ft 516 kts 75°
2026-04-20 00:16 30.14213 95.20171 37171 ft 516 kts 76°
2026-04-20 00:16 30.15817 95.28237 37178 ft 517 kts 76°
2026-04-20 00:17 30.17399 95.36346 37192 ft 515 kts 76°
2026-04-20 00:17 30.18983 95.44427 37224 ft 516 kts 76°
2026-04-20 00:18 30.20569 95.52522 37227 ft 516 kts 76°
2026-04-20 00:18 30.22138 95.60610 37220 ft 516 kts 76°
2026-04-20 00:19 30.23707 95.68698 37227 ft 515 kts 76°
2026-04-20 00:19 30.25273 95.76768 37221 ft 514 kts 76°
2026-04-20 00:20 30.26834 95.84845 37223 ft 515 kts 76°
2026-04-20 00:20 30.28384 95.92922 37227 ft 514 kts 76°
2026-04-20 00:21 30.29927 96.01004 37211 ft 514 kts 76°
2026-04-20 00:21 30.31513 96.09074 37209 ft 514 kts 75°
2026-04-20 00:22 30.33148 96.17137 37200 ft 514 kts 75°
2026-04-20 00:22 30.34781 96.25192 37202 ft 514 kts 76°
2026-04-20 00:23 30.36386 96.33254 37183 ft 514 kts 76°
2026-04-20 00:23 30.37164 96.37202 37188 ft 513 kts 76°
2026-04-20 00:24 30.38739 96.45185 37170 ft 512 kts 76°
2026-04-20 00:24 30.40327 96.53235 37166 ft 513 kts 76°
2026-04-20 00:25 30.41912 96.61270 37178 ft 511 kts 76°
2026-04-20 00:25 30.43501 96.69363 37174 ft 511 kts 76°
2026-04-20 00:26 30.45061 96.77385 37175 ft 510 kts 76°
2026-04-20 00:26 30.46606 96.85363 37145 ft 510 kts 76°
2026-04-20 00:27 30.48162 96.93393 37129 ft 510 kts 76°
2026-04-20 00:27 30.49719 97.01405 37154 ft 510 kts 76°
2026-04-20 00:28 30.51263 97.09435 37157 ft 509 kts 76°
2026-04-20 00:28 30.51873 97.17583 37136 ft 508 kts 94°
2026-04-20 00:29 30.51220 97.25717 37140 ft 506 kts 97°
2026-04-20 00:29 30.50555 97.33823 37113 ft 506 kts 96°
2026-04-20 00:30 30.49886 97.41966 37117 ft 506 kts 96°
2026-04-20 00:30 30.49207 97.50067 37095 ft 504 kts 97°
2026-04-20 00:31 30.48523 97.58141 37097 ft 504 kts 97°
2026-04-20 00:31 30.47837 97.66221 37072 ft 503 kts 96°
2026-04-20 00:32 30.47147 97.74290 37083 ft 503 kts 96°
2026-04-20 00:32 30.46451 97.82350 37077 ft 503 kts 97°
2026-04-20 00:33 30.45750 97.90400 37071 ft 503 kts 97°
2026-04-20 00:33 30.45046 97.98453 37087 ft 503 kts 97°
2026-04-20 00:34 30.44332 98.06532 37094 ft 503 kts 97°
2026-04-20 00:34 30.43621 98.14574 37093 ft 502 kts 97°
2026-04-20 00:35 30.42911 98.22618 37097 ft 502 kts 96°
2026-04-20 00:35 30.42276 98.30669 37089 ft 501 kts 96°
2026-04-20 00:36 30.41678 98.38711 37087 ft 501 kts 96°
2026-04-20 00:36 30.41069 98.46755 37092 ft 501 kts 96°
2026-04-20 00:37 30.40432 98.54791 37086 ft 501 kts 96°
2026-04-20 00:37 30.39782 98.62815 37088 ft 500 kts 96°
2026-04-20 00:38 30.39130 98.70839 37066 ft 500 kts 96°
2026-04-20 00:38 30.38478 98.78871 37046 ft 501 kts 96°
2026-04-20 00:39 30.37821 98.86918 37047 ft 502 kts 96°
2026-04-20 00:39 30.37163 98.94981 37052 ft 504 kts 96°
2026-04-20 00:40 30.36497 99.03056 37053 ft 504 kts 96°
2026-04-20 00:40 30.35825 99.11136 37058 ft 504 kts 96°
2026-04-20 00:41 30.35141 99.19198 37064 ft 501 kts 96°
2026-04-20 00:41 30.34456 99.27237 37092 ft 502 kts 96°
2026-04-20 00:42 30.33772 99.35277 37076 ft 500 kts 95°
2026-04-20 00:42 30.33081 99.43304 37106 ft 502 kts 96°
2026-04-20 00:43 30.32389 99.51331 37114 ft 501 kts 96°
2026-04-20 00:43 30.31694 99.59337 37116 ft 500 kts 96°
2026-04-20 00:44 30.30994 99.67330 37111 ft 499 kts 96°
2026-04-20 00:44 30.30280 99.75315 37109 ft 498 kts 96°
2026-04-20 00:45 30.29564 99.83290 37097 ft 499 kts 96°
2026-04-20 00:45 30.28850 99.91268 37108 ft 499 kts 97°
2026-04-20 00:46 30.28122 99.99233 37086 ft 497 kts 97°
2026-04-20 00:46 30.27462 100.07201 37081 ft 497 kts 95°
2026-04-20 00:47 30.26908 100.15181 37083 ft 498 kts 95°
2026-04-20 00:47 30.26349 100.23107 37084 ft 497 kts 96°
2026-04-20 00:48 30.25743 100.31076 37077 ft 497 kts 96°
2026-04-20 00:48 30.25130 100.39036 37082 ft 497 kts 96°
2026-04-20 00:49 30.24521 100.46984 37075 ft 496 kts 96°
2026-04-20 00:49 30.23907 100.54929 37073 ft 496 kts 96°
2026-04-20 00:50 30.23285 100.62857 37076 ft 494 kts 95°
2026-04-20 00:50 30.22753 100.69422 37079 ft 492 kts 96°
2026-04-20 00:51 30.22115 100.77308 37084 ft 493 kts 96°
2026-04-20 00:51 30.21508 100.85192 37114 ft 494 kts 95°
2026-04-20 00:52 30.20895 100.93072 37052 ft 489 kts 96°
2026-04-20 00:52 30.20250 101.00919 37047 ft 492 kts 96°
2026-04-20 00:53 30.19594 101.08792 37062 ft 492 kts 96°
2026-04-20 00:53 30.18943 101.16682 37068 ft 493 kts 96°
2026-04-20 00:54 30.18288 101.24574 37087 ft 493 kts 96°
2026-04-20 00:54 30.17628 101.32457 37097 ft 493 kts 96°
2026-04-20 00:55 30.16962 101.40352 37099 ft 492 kts 96°
2026-04-20 00:55 30.16288 101.48212 37121 ft 492 kts 96°
2026-04-20 00:56 30.15616 101.56073 37110 ft 492 kts 96°
2026-04-20 00:56 30.14947 101.63944 37126 ft 491 kts 96°
2026-04-20 00:57 30.14775 101.71826 37127 ft 492 kts 83°
2026-04-20 00:57 30.16495 101.79431 37144 ft 489 kts 65°
2026-04-20 00:58 30.19171 101.86657 37140 ft 490 kts 64°
2026-04-20 00:58 30.21822 101.93856 37144 ft 489 kts 65°
2026-04-20 00:59 30.24493 102.01144 37139 ft 488 kts 65°
2026-04-20 00:59 30.27147 102.08389 37151 ft 489 kts 65°
2026-04-20 01:00 30.29787 102.15594 36860 ft 489 kts 65°
2026-04-20 01:00 30.31113 102.19219 36532 ft 488 kts 66°
2026-04-20 01:00 30.32435 102.22835 35858 ft 488 kts 65°
2026-04-20 01:00 30.33758 102.26453 35154 ft 488 kts 66°
2026-04-20 01:01 30.35079 102.30074 34517 ft 487 kts 66°
2026-04-20 01:01 30.36395 102.33686 33783 ft 487 kts 66°
2026-04-20 01:01 30.37708 102.37293 33251 ft 485 kts 66°
2026-04-20 01:01 30.39003 102.40864 32878 ft 488 kts 66°
2026-04-20 01:02 30.40337 102.44545 32489 ft 492 kts 67°
2026-04-20 01:02 30.41663 102.48212 32114 ft 493 kts 67°
2026-04-20 01:02 30.42986 102.51865 31744 ft 491 kts 67°
2026-04-20 01:02 30.44305 102.55504 31378 ft 489 kts 67°
2026-04-20 01:03 30.45620 102.59136 31007 ft 486 kts 66°
2026-04-20 01:03 30.46924 102.62740 30658 ft 484 kts 67°
2026-04-20 01:03 30.48202 102.66284 30322 ft 481 kts 67°
2026-04-20 01:03 30.49505 102.69899 29947 ft 479 kts 67°
2026-04-20 01:04 30.50768 102.73408 29541 ft 476 kts 67°
2026-04-20 01:04 30.52051 102.76986 29128 ft 472 kts 67°
2026-04-20 01:04 30.53287 102.80436 28732 ft 468 kts 67°
2026-04-20 01:04 30.54545 102.83956 28332 ft 465 kts 67°
2026-04-20 01:05 30.55777 102.87408 27948 ft 461 kts 67°
2026-04-20 01:05 30.57004 102.90839 27580 ft 458 kts 67°
2026-04-20 01:05 30.58208 102.94202 27198 ft 455 kts 67°
2026-04-20 01:05 30.59415 102.97585 26830 ft 452 kts 67°
2026-04-20 01:06 30.60611 103.00936 26463 ft 448 kts 67°
2026-04-20 01:06 30.61793 103.04267 26102 ft 445 kts 68°
2026-04-20 01:06 30.62949 103.07588 25744 ft 441 kts 68°
2026-04-20 01:06 30.64081 103.10887 25395 ft 438 kts 68°
2026-04-20 01:07 30.65195 103.14167 25042 ft 435 kts 68°
2026-04-20 01:07 30.66302 103.17430 24696 ft 432 kts 68°
2026-04-20 01:07 30.67395 103.20686 24010 ft 433 kts 70°
2026-04-20 01:07 30.68121 103.24046 23680 ft 425 kts 81°
2026-04-20 01:08 30.68285 103.27448 23205 ft 420 kts 92°
2026-04-20 01:08 30.68012 103.30808 22717 ft 416 kts 96°
2026-04-20 01:08 30.67704 103.34132 22214 ft 413 kts 96°
2026-04-20 01:08 30.67401 103.37437 21716 ft 409 kts 96°
2026-04-20 01:09 30.67103 103.40710 21241 ft 406 kts 96°
2026-04-20 01:09 30.66806 103.43961 20776 ft 402 kts 96°
2026-04-20 01:09 30.66511 103.47177 20298 ft 399 kts 96°
2026-04-20 01:09 30.66215 103.50377 19822 ft 396 kts 96°
2026-04-20 01:10 30.65921 103.53534 19392 ft 392 kts 96°
2026-04-20 01:10 30.65343 103.59773 18491 ft 385 kts 95°
2026-04-20 01:10 30.65054 103.62859 18009 ft 382 kts 96°
2026-04-20 01:11 30.64765 103.65914 17495 ft 379 kts 96°
2026-04-20 01:11 30.64477 103.68946 17001 ft 376 kts 96°
2026-04-20 01:11 30.64199 103.71956 16521 ft 374 kts 96°
2026-04-20 01:11 30.63933 103.74951 16055 ft 371 kts 96°
2026-04-20 01:12 30.63679 103.77917 15590 ft 369 kts 96°
2026-04-20 01:12 30.63478 103.80875 15134 ft 366 kts 93°
2026-04-20 01:12 30.63509 103.83823 14681 ft 364 kts 93°
2026-04-20 01:12 30.62979 103.86661 14232 ft 358 kts 115°
2026-04-20 01:13 30.61624 103.89024 13800 ft 350 kts 137°
2026-04-20 01:13 30.59746 103.90762 13309 ft 346 kts 147°
2026-04-20 01:13 30.57755 103.92306 12895 ft 342 kts 156°
2026-04-20 01:13 30.55486 103.93017 12810 ft 336 kts 179°
2026-04-20 01:14 30.53194 103.92642 12825 ft 334 kts 201°
2026-04-20 01:14 30.51077 103.91546 12829 ft 334 kts 207°
2026-04-20 01:14 30.48986 103.90370 12829 ft 334 kts 207°
2026-04-20 01:14 30.46920 103.89259 12483 ft 330 kts 206°
2026-04-20 01:15 30.44857 103.88102 11970 ft 329 kts 207°
2026-04-20 01:15 30.42828 103.86940 11708 ft 319 kts 207°
2026-04-20 01:15 30.40857 103.85809 11567 ft 302 kts 207°
2026-04-20 01:15 30.39065 103.84777 11451 ft 282 kts 207°
2026-04-20 01:16 30.37365 103.83793 11337 ft 264 kts 207°
2026-04-20 01:16 30.35773 103.82873 11207 ft 247 kts 207°
2026-04-20 01:16 30.34284 103.82012 11083 ft 231 kts 207°
2026-04-20 01:16 30.32876 103.81200 10777 ft 226 kts 207°
2026-04-20 01:17 30.31458 103.80379 10301 ft 229 kts 207°
2026-04-20 01:17 30.30031 103.79549 9875 ft 229 kts 207°
2026-04-20 01:17 30.28611 103.78720 9432 ft 229 kts 207°
2026-04-20 01:17 30.27194 103.77891 8996 ft 228 kts 207°
2026-04-20 01:18 30.25784 103.77066 8594 ft 228 kts 207°
2026-04-20 01:18 30.24375 103.76238 8317 ft 226 kts 207°
2026-04-20 01:18 30.22891 103.75685 8032 ft 225 kts 184°
2026-04-20 01:18 30.21393 103.75956 7907 ft 216 kts 156°
2026-04-20 01:19 30.20215 103.76944 7768 ft 206 kts 130°
2026-04-20 01:19 30.19556 103.78374 7398 ft 202 kts 104°
2026-04-20 01:19 30.19657 103.79948 6970 ft 200 kts 61°
2026-04-20 01:19 30.20702 103.80915 6574 ft 196 kts 13°
2026-04-20 01:20 30.22044 103.80805 6158 ft 195 kts 347°
2026-04-20 01:20 30.23395 103.80732 5717 ft 196 kts
2026-04-20 01:20 30.24713 103.81113 5288 ft 197 kts 17°
2026-04-20 01:20 30.25997 103.81651 5000 ft 194 kts 20°
2026-04-20 01:21 30.27264 103.82225 5008 ft 197 kts 20°
2026-04-20 01:21 30.28538 103.82811 5000 ft 197 kts 21°
2026-04-20 01:21 30.29816 103.83402 5001 ft 197 kts 20°
2026-04-20 01:21 30.31091 103.83992 5001 ft 197 kts 21°
2026-04-20 01:22 30.32367 103.84582 4999 ft 197 kts 21°
2026-04-20 01:22 30.33645 103.85173 5000 ft 198 kts 20°
2026-04-20 01:22 30.34920 103.85764 5023 ft 195 kts 21°
2026-04-20 01:22 30.36151 103.86334 4922 ft 188 kts 20°
2026-04-20 01:23 30.37360 103.86895 4723 ft 187 kts 21°
2026-04-20 01:23 30.38565 103.87453 4499 ft 186 kts 21°
2026-04-20 01:23 30.39768 103.88011 4247 ft 186 kts 21°
2026-04-20 01:23 30.40962 103.88564 3993 ft 184 kts 21°
2026-04-20 01:24 30.42144 103.89112 3764 ft 183 kts 22°
2026-04-20 01:24 30.43323 103.89659 3525 ft 182 kts 22°
2026-04-20 01:24 30.44451 103.90182 3299 ft 167 kts 23°
2026-04-20 01:24 30.45492 103.90665 3074 ft 155 kts 23°
2026-04-20 01:25 30.46456 103.91113 2880 ft 144 kts 22°
2026-04-20 01:25 30.47369 103.91537 2699 ft 140 kts 22°
2026-04-20 01:25 30.48272 103.91957 2499 ft 140 kts 22°
2026-04-20 01:25 30.49181 103.92379 2333 ft 141 kts 22°
2026-04-20 01:26 30.50096 103.92810 2134 ft 142 kts 21°
2026-04-20 01:26 30.51018 103.93242 1931 ft 144 kts 22°
2026-04-20 01:26 30.51935 103.93665 1744 ft 143 kts 21°
2026-04-20 01:26 30.52812 103.94064 1669 ft 124 kts 22°
2026-04-20 01:27 30.53484 103.94383 1658 ft 78 kts 20°
2026-04-20 01:27 30.53863 103.94558 1652 ft 52 kts 22°
2026-04-20 01:27 30.54115 103.94622 1649 ft 33 kts 359°
2026-04-20 01:27 30.54296 103.94593 1647 ft 17 kts 352°
2026-04-20 01:28 30.54415 103.94592 1648 ft 17 kts
2026-04-20 01:28 30.54529 103.94640 1647 ft 18 kts 23°
2026-04-20 01:28 30.54645 103.94694 1647 ft 17 kts 22°
2026-04-20 01:28 30.54752 103.94744 1647 ft 17 kts 22°
2026-04-20 01:29 30.54840 103.94699 1647 ft 16 kts 299°
2026-04-20 01:29 30.54898 103.94591 1647 ft 16 kts 299°
2026-04-20 01:29 30.54979 103.94495 1647 ft 17 kts 321°
2026-04-20 01:29 30.55082 103.94426 1647 ft 17 kts 338°
2026-04-20 01:30 30.55197 103.94371 1647 ft 19 kts 335°
2026-04-20 01:30 30.55319 103.94311 1647 ft 20 kts 338°
2026-04-20 01:30 30.55454 103.94246 1647 ft 23 kts 337°
2026-04-20 01:30 30.55607 103.94167 1647 ft 25 kts 336°
2026-04-20 01:31 30.55770 103.94099 1647 ft 25 kts 351°
2026-04-20 01:31 30.55941 103.94132 1647 ft 26 kts 21°
2026-04-20 01:31 30.56056 103.94185 1647 ft 12 kts 23°
2026-04-20 01:31 30.56135 103.94225 1647 ft 13 kts 18°
2026-04-20 01:32 30.56221 103.94264 1647 ft 14 kts 22°
2026-04-20 01:32 30.56314 103.94306 1647 ft 15 kts 21°
2026-04-20 01:32 30.56412 103.94353 1647 ft 16 kts 27°
2026-04-20 01:32 30.56515 103.94403 1647 ft 16 kts 19°
2026-04-20 01:33 30.56623 103.94451 1648 ft 17 kts 23°
2026-04-20 01:33 30.56696 103.94486 1647 ft 11 kts 22°
2026-04-20 01:33 30.56768 103.94520 1647 ft 12 kts 22°
2026-04-20 01:33 30.56791 103.94531 1647 ft 0 kts 21°
2026-04-20 01:47 30.56806 103.94538 1647 ft 5 kts 22°
2026-04-20 01:47 30.56853 103.94561 1647 ft 9 kts 22°
2026-04-20 01:48 30.56918 103.94587 1647 ft 10 kts 17°
2026-04-20 01:48 30.56991 103.94610 1647 ft 12 kts 14°
2026-04-20 01:48 30.57071 103.94642 1647 ft 13 kts 25°
2026-04-20 01:48 30.57157 103.94685 1647 ft 14 kts 22°
2026-04-20 01:49 30.57249 103.94729 1647 ft 15 kts 22°
2026-04-20 01:49 30.57349 103.94776 1647 ft 16 kts 22°
2026-04-20 01:49 30.57461 103.94828 1647 ft 18 kts 22°
2026-04-20 01:49 30.57589 103.94889 1647 ft 21 kts 22°
2026-04-20 01:50 30.57731 103.94952 1647 ft 20 kts 19°
2026-04-20 01:50 30.57840 103.95003 1647 ft 14 kts 22°
2026-04-20 01:50 30.57904 103.95037 1647 ft 9 kts 40°
2026-04-20 01:50 30.57907 103.95085 1647 ft 7 kts 106°
2026-04-20 01:51 30.57900 103.95153 1647 ft 9 kts 91°
2026-04-20 01:51 30.57882 103.95216 1647 ft 8 kts 113°
2026-04-20 01:51 30.57868 103.95255 1647 ft 3 kts 111°
2026-04-20 01:51 30.57847 103.95279 1647 ft 6 kts 145°
2026-04-20 01:52 30.57802 103.95297 1647 ft 6 kts 171°
2026-04-20 01:52 30.57778 103.95320 1647 ft 1 kts 131°
2026-04-20 01:52 30.57772 103.95329 1647 ft 2 kts 126°
2026-04-20 01:52 30.57766 103.95345 1647 ft 2 kts 113°
2026-04-20 01:53 30.57760 103.95362 1647 ft 3 kts 113°
2026-04-20 01:53 30.57757 103.95370 1647 ft 0 kts 112°